Weather Roundup
Issued by NWS

Home | Current Version | Previous Version | Graphics & Text | Print | Product List | Glossary Off
Versions: 1 2 3 4 5 6 7 8 9 10 11 12 13 14 15 16 17 18 19 20 21 22 23 24 25 26 27 28 29 30 31 32 33 34 35 36 37 38 39 40 41 42 43 44 45 46 47 48 49 50

000
NZUS93 KARX 110959
HRRWXR

CURRENT HOURLY OBSERVATIONS ACROSS
MUCH OF THE UPPER MISSISSIPPI VALLEY
NATIONAL WEATHER SERVICE LA CROSSE WI
400 AM CST SUN DEC 11 2016


...SOUTHEAST MINNESOTA...


CITY           SKY/WX    TMP DP  RH WIND       PRES   REMARKS
ROCHESTER      LGT SNOW  17  15  92 E13       29.96F VSB 1   WCI   4
ROCHESTER/MAYO CLOUDY    18  17  96 E5        29.97F VSB 3/4 WCI  11
WINONA         LGT SNOW  19  18  93 SE7       30.05F WCI  10
AUSTIN         LGT SNOW  19  18  93 SE12      29.93F WCI   7
ALBERT LEA     LGT SNOW  25  21  86 SE13      29.90F WCI  13
DODGE CENTER   LGT SNOW  16  16 100 E12       29.94F VSB 1   WCI   3
PRESTON        LGT SNOW  18  16  90 E7        29.96F WCI   9
OWATONNA       LGT SNOW  18  14  86 E13       29.93F VSB 1   WCI   4
FARIBAULT      LGT SNOW  18  14  86 E10       29.97F VSB 3/4 WCI   6
$$

...ELSEWHERE IN MINNESOTA...


CITY           SKY/WX    TMP DP  RH WIND       PRES   REMARKS
MINNEAPOLIS    LGT SNOW  16  12  84 E9        30.01F VSB 3/4 WCI   4
INTNL FALLS    CLOUDY    -8 -12  83 E7        30.17S WCI -23
DULUTH         CLOUDY     9   5  84 E9        30.07F WCI  -4
RED WING       LGT SNOW  18  12  79 E7        30.02F VSB 1   WCI   8
REDWOOD FALLS  LGT SNOW  16  11  80 E13       29.91F WCI   2
MANKATO        FLURRIES  17  14  88 E14       29.93F WCI   3
WORTHINGTON    CLOUDY    20  18  92 SE10      29.84S WCI   9
FAIRMONT       FLURRIES  20  18  92 SE14      29.87F WCI   7
$$

...SOUTHWEST WISCONSIN...


CITY           SKY/WX    TMP DP  RH WIND       PRES   REMARKS
LA CROSSE      LGT SNOW  20  17  88 E3        30.04F VSB 3/4
PRAIRIE DU CHI LGT SNOW  23  19  85 E9        30.04F WCI  13
BOSCOBEL       LGT SNOW  24  20  84 VRB3      30.05F FOG
LONE ROCK      NOT AVBL
PLATTEVILLE    CLOUDY    23  23  99 SE15      30.02F WCI  10
FORT MC COY    LGT SNOW  18  17  93 E8        30.06F WCI   8
CAMP DOUGLAS   LGT SNOW  19  16  86 E9        30.06F FOG     WCI   9
MAUSTON-NEW LI LGT SNOW  19  17  91 E3        30.06F
VIROQUA        CLOUDY    19  18  94 SE12      30.00F WCI   7
WIS DELLS      LGT SNOW  20  18  91 E6        30.07F VSB 3/4 WCI  12
$$

...ELSEWHERE IN WISCONSIN...


CITY           SKY/WX    TMP DP  RH WIND       PRES   REMARKS
MILWAUKEE      LGT SNOW  25  22  88 S7        30.14F FOG     WCI  17
MADISON        LGT SNOW  21  18  88 SE8       30.08F VSB 1   WCI  11
GREEN BAY      LGT SNOW  19  16  88 E7        30.19F FOG     WCI  10
EAU CLAIRE     LGT SNOW  16  13  88 NE8       30.07F FOG     WCI   5
BLACK RVR FLS  SNOW      19  15  88 E6        30.06F VSB 1/2 WCI  10
MEDFORD        LGT SNOW  11   8  86 E7        30.07S WCI   1
WAUSAU         LGT SNOW  13   9  84 E7        30.10F FOG     WCI   3
WIS RAPIDS     LGT SNOW  17  14  88 E9        30.10F FOG     WCI   6
MARSHFIELD     LGT SNOW  15  11  83 E9        30.06F FOG     WCI   3
RICE LAKE      LGT SNOW  14  10  86 NE8       30.10F WCI   2
$$

...NORTHEAST IOWA...


CITY           SKY/WX    TMP DP  RH WIND       PRES   REMARKS
WATERLOO       CLOUDY    23  20  88 SE12      29.95F WCI  12
DUBUQUE        LGT SNOW  23  21  92 SE16      30.00F FOG     WCI  10
DECORAH        LGT SNOW  21  19  93 SE10G20   29.95F WCI  10
MASON CITY     CLOUDY    21  18  88 SE15      29.92F WCI   8
CHARLES CITY   LGT SNOW  23  21  93 SE14      29.94F WCI  11
OELWEIN        CLOUDY    23  21  93 SE15      29.95F WCI  10
$$

...ELSEWHERE IN IOWA...


CITY           SKY/WX    TMP DP  RH WIND       PRES   REMARKS
DES MOINES     CLOUDY    29  21  72 E10       29.87F WCI  20
IOWA CITY      CLOUDY    27  22  81 E5        30.00F WCI  22
FORT DODGE     CLOUDY    23  18  80 E14       29.84F WCI  11
MARSHALLTOWN   CLOUDY    25  22  88 SE13      29.90F WCI  14
CEDAR RAPIDS   CLOUDY    24  23  96 E13       29.96F WCI  12
$$

...NORTHERN ILLINOIS...


CITY           SKY/WX    TMP DP  RH WIND       PRES   REMARKS
CHICAGO-OHARE  LGT SNOW  25  22  88 SE10      30.15F FOG     WCI  15
CHICAGO-MIDWAY FLURRIES  26  21  81 SE9       30.16F WCI  17
MOLINE         CLOUDY    28  22  78 E9        30.02F WCI  19
ROCKFORD       LGT SNOW  24  21  88 SE12      30.11F VSB 1   WCI  13
PEORIA         CLOUDY    31  23  72 SE8       30.06F WCI  23
$$

NOTE: "FAIR" INDICATES FEW OR NO CLOUDS BELOW 12,000 FEET WITH NO
SIGNIFICANT WEATHER AND/OR OBSTRUCTIONS TO VISIBILITY. WIND
SPEEDS ARE IN MILES-PER-HOUR.




USA.gov is the U.S. government's official web portal to all federal, state and local government web resources and services.